Location: Bats
(43.6587°N, 0.4584°W)
Time: 14:34:13
(UTC+00:00)

Cosmos 1241 Rocket - Pass Details

Date: 12 January 2026
Orbit: 942 x 1004 km, 65.8° (Epoch: 18 February)

Event Time Altitude Azimuth Distance (km) Brightness Sun altitude
Rises 17:32:37 0° 327° (NNW) 3,614 7.6 -8.3°
Reaches altitude 10° 17:35:09 10° 327° (NNW) 2,666 6.9 -8.7°
Maximum altitude 17:41:23 87° 56° (ENE) 951 4.5 -9.7°
Drops below altitude 10° 17:47:37 10° 148° (SSE) 2,667 6.7 -10.8°
Sets 17:50:10 0° 148° (SSE) 3,616 7.4 -11.2°
